Angel Fire, NM

3:52 AM MST on December 15, 2019 (GMT -0700)
Angel Fire

Weather History for KAXX - November, 2019

Change the Weather History Date:

Monday, November 18, 2019

  Actual Average (WUND) Record (WUND)
Temperature  
Mean Temperature 34 °F -  
Max Temperature 55 °F - - (-1)
Min Temperature 14 °F - - (-1)
Degree Days  
Heating Degree Days 30    
Moisture  
Dew Point 16 °F    
Average Humidity 55    
Maximum Humidity 86    
Minimum Humidity 25    
Precipitation  
Precipitation 0.00 in - - ()
Sea Level Pressure  
Sea Level Pressure 30.20 in    
Wind  
Wind Speed 5 mph (WSW)    
Max Wind Speed 21 mph    
Max Gust Speed 25 mph    
Visibility 10 miles    
Events      
Averages and records for this station are not official NWS values.
T = Trace of Precipitation, MM = Missing Value Source: NWS Daily Summary

Daily Weather History Graph

Daily Weather History Graph

Search for Another Location

Airport or City:

Astronomy

Nov. 18, 2019 Rise Set
Actual Time 6:41 AM MST 4:50 PM MST
Civil Twilight 6:13 AM MST 5:18 PM MST
Nautical Twilight 5:42 AM MST 5:49 PM MST
Astronomical Twilight 5:11 AM MST 6:20 PM MST
Moon 10:39 PM MST (11/18) 12:13 PM MST (11/18)
Length of Visible Light 11h 04m
Length of Day
10h 09m
Waning Gibbous, 62% of the Moon is Illuminated
Nov 18
Waning Gibbous
Nov 19
Last Quarter
Nov 26
New
Dec 3
First Quarter
Dec 11
Full

Hourly Weather History & Observations

Time (MST) Temp. Windchill Dew Point Humidity Pressure Visibility Wind Dir Wind Speed Gust Speed Precip Events Conditions
12:15 AM 23.9 °F 16.8 °F 13.8 °F 65% 30.20 in 10.0 mi NE 5.8 mph - N/A   Clear
12:35 AM 21.9 °F 17.2 °F 14.2 °F 72% 30.20 in 10.0 mi NE 3.5 mph - N/A   Clear
12:55 AM 19.8 °F - 13.8 °F 78% 30.20 in 10.0 mi Calm Calm - N/A   Clear
1:15 AM 21.9 °F 17.2 °F 13.6 °F 70% 30.20 in 10.0 mi WSW 3.5 mph - N/A   Clear
1:35 AM 21.2 °F 16.4 °F 13.6 °F 73% 30.20 in 10.0 mi SSE 3.5 mph - N/A   Clear
2:15 AM 20.5 °F 11.7 °F 13.1 °F 73% 30.20 in 10.0 mi NE 6.9 mph - N/A   Clear
2:35 AM 24.8 °F - 14.2 °F 64% 30.19 in 10.0 mi Calm Calm - N/A   Clear
2:55 AM 23.5 °F 14.5 °F 15.6 °F 72% 30.19 in 10.0 mi NNE 8.1 mph - N/A   Clear
3:15 AM 24.4 °F 17.5 °F 15.8 °F 70% 30.20 in 10.0 mi NE 5.8 mph - N/A   Clear
3:35 AM 23.0 °F 17.0 °F 15.4 °F 73% 30.20 in 10.0 mi NNE 4.6 mph - N/A   Clear
3:55 AM 23.2 °F 17.2 °F 15.3 °F 72% 30.20 in 10.0 mi NE 4.6 mph - N/A   Clear
4:15 AM 21.9 °F 14.5 °F 14.4 °F 73% 30.20 in 10.0 mi North 5.8 mph - N/A   Clear
4:35 AM 23.7 °F 17.8 °F 14.7 °F 69% 30.21 in 10.0 mi NNE 4.6 mph - N/A   Clear
4:55 AM 21.2 °F 11.7 °F 15.4 °F 78% 30.21 in 10.0 mi ENE 8.1 mph - N/A   Clear
5:15 AM 21.9 °F 15.7 °F 15.8 °F 77% 30.22 in 10.0 mi NNE 4.6 mph - N/A   Clear
5:35 AM 18.1 °F - 12.7 °F 79% 30.22 in 10.0 mi Calm Calm - N/A   Clear
5:55 AM 16.7 °F - 12.9 °F 85% 30.22 in 10.0 mi Calm Calm - N/A   Clear
6:15 AM 15.4 °F - 11.7 °F 85% 30.23 in 10.0 mi Calm Calm - N/A   Clear
6:35 AM 14.5 °F 8.8 °F 10.9 °F 86% 30.23 in 10.0 mi East 3.5 mph - N/A   Clear
6:55 AM 14.5 °F - 11.1 °F 86% 30.24 in 10.0 mi Calm Calm - N/A   Clear
7:15 AM 14.4 °F 4.3 °F 10.9 °F 86% 30.25 in 10.0 mi West 6.9 mph - N/A   Clear
7:35 AM 22.1 °F - 16.5 °F 79% 30.26 in 10.0 mi Calm Calm - N/A   Clear
7:55 AM 27.9 °F - 16.7 °F 63% 30.25 in 10.0 mi Calm Calm - N/A   Clear
8:15 AM 32.0 °F - 16.7 °F 53% 30.25 in 10.0 mi Calm Calm - N/A   Clear
8:35 AM 35.2 °F - 16.7 °F 47% 30.25 in 10.0 mi Calm Calm - N/A   Clear
8:55 AM 39.7 °F 36.5 °F 16.2 °F 38% 30.25 in 10.0 mi SSE 4.6 mph - N/A   Clear
9:15 AM 43.3 °F - 17.1 °F 35% 30.25 in 10.0 mi Calm Calm - N/A   Clear
9:35 AM 46.0 °F - 19.9 °F 35% 30.24 in 10.0 mi Calm Calm - N/A   Clear
9:55 AM 47.7 °F - 19.9 °F 33% 30.24 in 10.0 mi ESE 3.5 mph - N/A   Clear
10:15 AM 49.6 °F - 20.3 °F 31% 30.23 in 10.0 mi SSE 5.8 mph - N/A   Clear
10:35 AM 51.1 °F - 20.3 °F 30% 30.22 in 10.0 mi Calm Calm - N/A   Clear
10:55 AM 52.7 °F - 19.8 °F 27% 30.22 in 10.0 mi WSW 8.1 mph - N/A   Clear
11:15 AM 54.3 °F - 20.7 °F 27% 30.20 in 10.0 mi WSW 11.5 mph - N/A   Clear
11:35 AM 54.5 °F - 21.0 °F 27% 30.20 in 10.0 mi SW 11.5 mph 18.4 mph N/A   Clear
11:55 AM 54.9 °F - 21.2 °F 27% 30.19 in 10.0 mi SW 12.7 mph 18.4 mph N/A   Clear
12:15 PM 55.8 °F - 20.8 °F 26% 30.19 in 10.0 mi WSW 15.0 mph 24.2 mph N/A   Clear
12:35 PM 55.8 °F - 20.5 °F 25% 30.18 in 10.0 mi WSW 10.4 mph - N/A   Clear
12:55 PM 55.4 °F - 20.1 °F 25% 30.17 in 10.0 mi West 17.3 mph 20.7 mph N/A   Clear
1:15 PM - - - N/A% - - North - - N/A   Unknown
1:35 PM 54.3 °F - 20.5 °F 27% 30.16 in 10.0 mi WSW 8.1 mph 18.4 mph N/A   Clear
1:55 PM 55.2 °F - 20.5 °F 26% 30.15 in - WSW 10.4 mph 16.1 mph N/A   Clear
2:15 PM 55.0 °F - 19.9 °F 25% 30.15 in - West 15.0 mph 18.4 mph N/A   Clear
2:35 PM 54.5 °F - 19.6 °F 26% 30.15 in - West 16.1 mph 21.9 mph N/A   Clear
2:55 PM 54.1 °F - 19.2 °F 25% 30.15 in - WSW 20.7 mph 25.3 mph N/A   Clear
3:15 PM 53.6 °F - 18.5 °F 25% 30.16 in - WSW 12.7 mph 24.2 mph N/A   Clear
3:35 PM 53.1 °F - 18.1 °F 25% 30.16 in - West 18.4 mph 21.9 mph N/A   Clear
3:55 PM 52.0 °F - 17.6 °F 26% 30.17 in - West 13.8 mph 18.4 mph N/A   Clear
4:15 PM 51.1 °F - 17.2 °F 26% 30.17 in - West 13.8 mph - N/A   Clear
4:35 PM 47.3 °F - 16.5 °F 29% 30.18 in - West 10.4 mph - N/A   Clear
4:55 PM 44.4 °F 42.0 °F 15.6 °F 31% 30.18 in - SW 4.6 mph - N/A   Clear
5:15 PM 41.4 °F 36.2 °F 15.1 °F 35% 30.18 in - South 8.1 mph - N/A   Clear
5:55 PM 35.2 °F 32.4 °F 15.8 °F 45% 30.20 in - SSW 3.5 mph - N/A   Clear
6:15 PM 31.5 °F - 15.4 °F 52% 30.20 in - Calm Calm - N/A   Clear
6:35 PM 30.7 °F - 15.3 °F 53% 30.20 in - Calm Calm - N/A   Clear
6:55 PM 30.2 °F - 15.6 °F 55% 30.20 in - Calm Calm - N/A   Clear
7:15 PM 24.6 °F - 14.2 °F 65% 30.20 in - Calm Calm - N/A   Clear
7:35 PM 23.7 °F 19.3 °F 14.4 °F 67% 30.20 in - South 3.5 mph - N/A   Clear
7:55 PM 21.0 °F - 13.1 °F 71% 30.20 in - Calm Calm - N/A   Clear
8:15 PM 20.1 °F - 12.6 °F 73% 30.19 in - Calm Calm - N/A   Clear
8:35 PM 22.5 °F - 14.4 °F 71% 30.20 in - Calm Calm - N/A   Clear
9:15 PM 22.8 °F - 15.3 °F 73% 30.18 in - Calm Calm - N/A   Clear
9:35 PM 25.2 °F - 16.0 °F 68% 30.18 in - Calm Calm - N/A   Clear
9:55 PM 23.0 °F - 15.4 °F 73% 30.18 in - Calm Calm - N/A   Clear
10:15 PM 23.0 °F - 15.6 °F 73% 30.18 in - Calm Calm - N/A   Clear
10:35 PM 22.5 °F - 14.4 °F 71% 30.17 in - Calm Calm - N/A   Clear
10:55 PM 17.4 °F - 11.8 °F 79% 30.17 in - Calm Calm - N/A   Clear
11:15 PM 17.4 °F - 11.7 °F 78% 30.17 in - Calm Calm - N/A   Clear
11:35 PM 16.2 °F - 11.1 °F 81% 30.16 in - Calm Calm - N/A   Clear
11:55 PM 14.9 °F - 10.0 °F 81% 30.16 in - Calm Calm - N/A   Clear